Location: G�ndlingen
(48.0142°N, 7.6396°E)
Time: 02:51:52
(UTC+00:00)

Cosmos 2151 - Pass Details

Date: 05 July 2020
Orbit: 580 x 602 km, 82.5° (Epoch: 04 August)

Event Time Altitude Azimuth Distance (km) Brightness Sun altitude
Exits shadow 21:47:17 20° 115° (ESE) 1,409 4.4 -15.4°
Maximum altitude 21:48:38 23° 88° (E) 1,283 4.5 -15.5°
Drops below altitude 10° 21:52:01 10° 35° (NE) 1,942 6.0 -15.7°
Sets 21:54:34 0° 22° (NNE) 2,846 7.2 -15.9°
